Weather History for Pittsburg, KS

Change the Weather History Date:

Tuesday, October 16, 2012

  Actual Average (KJLN) Record (KJLN)
Temperature  
Mean Temperature 68 °F 60 °F  
Max Temperature 76 °F 71 °F 88 °F (1995)
Min Temperature 59 °F 48 °F 31 °F (1966)
Degree Days  
Heating Degree Days 0 7  
Month to date heating degree days 83  
Since 1 July heating degree days 125  
Cooling Degree Days 2 1  
Month to date cooling degree days 34  
Year to date cooling degree days 1676  
Growing Degree Days 18 (Base 50)    
Moisture  
Dew Point 48 °F    
Average Humidity 51    
Maximum Humidity 67    
Minimum Humidity 33    
Precipitation  
Precipitation 0.00 in 0.12 in 2.12 in (2000)
Month to date precipitation 2.08  
Year to date precipitation 38.00  
Sea Level Pressure  
Sea Level Pressure 29.73 in    
Wind  
Wind Speed 12 mph (SSW)    
Max Wind Speed 22 mph    
Max Gust Speed 30 mph    
Visibility 10 miles    
Events      
T = Trace of Precipitation, MM = Missing Value Source: NWS Daily Summary

Daily Weather History Graph

Daily Weather History Graph

Search for Another Location

Airport:

Trip Planner

Search our weather history database for the weather conditions in past years. The results will help you decide how hot, cold, wet, or windy it might be!

Date:

Astronomy

Oct. 16, 2012 Rise Set
Actual Time 7:28 AM CDT 6:39 PM CDT
Civil Twilight 7:02 AM CDT 7:06 PM CDT
Nautical Twilight 6:31 AM CDT 7:36 PM CDT
Astronomical Twilight 6:01 AM CDT 8:06 PM CDT
Moon 8:49 AM CDT (10/16) 7:28 PM CDT (10/16)
Length of Visible Light 12h 03m
Length of Day
11h 11m
New Moon, 2% of the Moon is Illuminated
Oct 16
New Moon
Oct 21
First Quarter
Oct 29
Full
Nov 6
Last Quarter
Nov 13
New

Hourly Weather History & Observations

Time (CDT) Temp. Dew Point Humidity Pressure Visibility Wind Dir Wind Speed Gust Speed Precip Events Conditions
12:15 AM 66.6 °F 50.2 °F 56% 29.86 in 10.0 mi SW 11.5 mph - N/A   Clear
12:35 AM 66.4 °F 50.0 °F 56% 29.86 in 10.0 mi SSW 10.4 mph - N/A   Clear
12:55 AM 64.4 °F 49.1 °F 58% 29.86 in 10.0 mi SSW 9.2 mph - N/A   Clear
1:15 AM 64.0 °F 49.3 °F 59% 29.86 in 10.0 mi SW 11.5 mph 16.1 mph N/A   Clear
1:35 AM 63.3 °F 48.7 °F 59% 29.86 in 10.0 mi SW 10.4 mph - N/A   Clear
1:55 AM 62.4 °F 48.6 °F 60% 29.85 in 10.0 mi SW 8.1 mph - N/A   Clear
2:15 AM 61.5 °F 48.9 °F 63% 29.85 in 10.0 mi SSW 8.1 mph - N/A   Clear
2:35 AM 60.4 °F 49.3 °F 67% 29.84 in 10.0 mi SW 8.1 mph - N/A   Clear
2:55 AM 60.3 °F 49.3 °F 67% 29.84 in 10.0 mi SSW 9.2 mph - N/A   Clear
3:15 AM 60.3 °F 49.3 °F 67% 29.83 in 10.0 mi SSW 9.2 mph 16.1 mph N/A   Clear
3:35 AM 60.4 °F 48.7 °F 65% 29.82 in 10.0 mi SSW 11.5 mph - N/A   Clear
3:55 AM 61.5 °F 48.9 °F 63% 29.82 in 10.0 mi SSW 10.4 mph 18.4 mph N/A   Clear
4:15 AM 61.5 °F 48.7 °F 63% 29.81 in 10.0 mi SSW 11.5 mph 18.4 mph N/A   Clear
4:35 AM 60.8 °F 48.2 °F 63% 29.81 in 10.0 mi SSW 10.4 mph 18.4 mph N/A   Clear
4:55 AM 60.3 °F 47.7 °F 63% 29.81 in 10.0 mi SSW 10.4 mph - N/A   Clear
5:35 AM 60.3 °F 47.7 °F 63% 29.81 in 10.0 mi SSW 9.2 mph - N/A   Clear
5:55 AM 60.3 °F 47.5 °F 63% 29.81 in 10.0 mi SSW 9.2 mph - N/A   Clear
6:35 AM 60.4 °F 46.6 °F 60% 29.81 in 10.0 mi SW 13.8 mph 18.4 mph N/A   Clear
7:15 AM 60.1 °F 46.8 °F 61% 29.82 in 10.0 mi SW 11.5 mph - N/A   Clear
7:55 AM 59.0 °F 47.1 °F 65% 29.82 in 10.0 mi SSW 11.5 mph 16.1 mph N/A   Clear
8:15 AM 59.0 °F 46.9 °F 64% 29.82 in 10.0 mi SSW 10.4 mph - N/A   Clear
8:35 AM 59.9 °F 46.9 °F 62% 29.82 in 10.0 mi SSW 12.7 mph - N/A   Clear
8:55 AM 61.3 °F 47.1 °F 60% 29.82 in 10.0 mi SSW 12.7 mph 17.3 mph N/A   Clear
9:15 AM 62.2 °F 47.1 °F 58% 29.81 in 10.0 mi SSW 16.1 mph 19.6 mph N/A   Clear
9:35 AM 64.4 °F 47.8 °F 55% 29.81 in 10.0 mi SSW 15.0 mph 20.7 mph N/A   Clear
9:55 AM 66.9 °F 49.3 °F 53% 29.81 in 10.0 mi SW 16.1 mph 20.7 mph N/A   Clear
10:15 AM 68.9 °F 50.0 °F 51% 29.80 in 10.0 mi SW 15.0 mph 23.0 mph N/A   Clear
10:35 AM 69.1 °F 48.7 °F 48% 29.79 in 10.0 mi SW 16.1 mph 24.2 mph N/A   Clear
10:55 AM 69.8 °F 48.2 °F 46% 29.79 in 10.0 mi SW 19.6 mph 29.9 mph N/A   Clear
11:15 AM 71.8 °F 48.9 °F 44% 29.79 in 10.0 mi SW 17.3 mph 25.3 mph N/A   Clear
11:35 AM 73.8 °F 49.8 °F 43% 29.79 in 10.0 mi SW 13.8 mph 26.5 mph N/A   Clear
11:55 AM 74.3 °F 49.3 °F 41% 29.78 in 10.0 mi SW 19.6 mph 28.8 mph N/A   Clear
12:15 PM 74.3 °F 49.1 °F 41% 29.77 in 10.0 mi SW 19.6 mph 25.3 mph N/A   Clear
12:35 PM 74.7 °F 49.1 °F 40% 29.76 in 10.0 mi SW 20.7 mph 28.8 mph N/A   Clear
12:55 PM 74.5 °F 47.5 °F 38% 29.75 in 10.0 mi SW 18.4 mph 29.9 mph N/A   Clear
1:15 PM 74.3 °F 47.1 °F 38% 29.73 in 10.0 mi SW 19.6 mph 25.3 mph N/A   Clear
1:35 PM 75.7 °F 48.2 °F 38% 29.72 in 10.0 mi SSW 19.6 mph 27.6 mph N/A   Clear
1:55 PM 76.3 °F 47.5 °F 36% 29.71 in 10.0 mi SW 15.0 mph 28.8 mph N/A   Clear
2:15 PM 76.6 °F 46.9 °F 35% 29.69 in 10.0 mi SSW 18.4 mph 27.6 mph N/A   Clear
2:35 PM 76.6 °F 46.2 °F 34% 29.68 in 10.0 mi SSW 19.6 mph 23.0 mph N/A   Clear
2:55 PM 76.6 °F 45.5 °F 33% 29.67 in 10.0 mi SSW 21.9 mph 27.6 mph N/A   Clear
3:15 PM 76.6 °F 46.0 °F 34% 29.66 in 10.0 mi SW 19.6 mph 25.3 mph N/A   Clear
3:35 PM 76.6 °F 46.6 °F 34% 29.65 in 10.0 mi SSW 18.4 mph 26.5 mph N/A   Clear
3:55 PM 76.6 °F 47.1 °F 35% 29.64 in 10.0 mi SSW 21.9 mph 27.6 mph N/A   Clear
4:15 PM 76.5 °F 46.6 °F 35% 29.63 in 10.0 mi SW 15.0 mph 29.9 mph N/A   Clear
4:35 PM 76.6 °F 47.5 °F 36% 29.63 in 10.0 mi SSW 16.1 mph 24.2 mph N/A   Clear
4:55 PM 76.1 °F 47.3 °F 36% 29.63 in 10.0 mi SSW 9.2 mph 25.3 mph N/A   Clear
5:15 PM 75.0 °F 46.2 °F 36% 29.62 in 10.0 mi SSW 13.8 mph 20.7 mph N/A   Clear
5:35 PM 74.3 °F 45.9 °F 36% 29.61 in 10.0 mi SSW 12.7 mph 18.4 mph N/A   Clear
5:55 PM 74.3 °F 46.6 °F 37% 29.61 in 10.0 mi SSW 11.5 mph 18.4 mph N/A   Clear
6:15 PM 73.6 °F 47.3 °F 39% - 10.0 mi SSW 9.2 mph - N/A   Clear
6:35 PM 70.3 °F 46.8 °F 43% 29.61 in 10.0 mi SSW 8.1 mph - N/A   Clear
6:55 PM 69.1 °F 48.6 °F 48% 29.61 in 10.0 mi South 8.1 mph - N/A   Clear
7:15 PM 67.1 °F 48.7 °F 52% 29.61 in 10.0 mi SSW 6.9 mph - N/A   Clear
7:35 PM 65.1 °F 48.2 °F 54% 29.61 in 10.0 mi SSW 8.1 mph - N/A   Clear
7:55 PM 64.6 °F 47.5 °F 54% 29.61 in 10.0 mi SSW 9.2 mph - N/A   Clear
8:15 PM 66.6 °F 48.2 °F 52% 29.61 in 10.0 mi SSW 11.5 mph - N/A   Clear
8:35 PM 65.5 °F 47.3 °F 52% 29.61 in 10.0 mi SSW 9.2 mph - N/A   Clear
8:55 PM 64.4 °F 46.6 °F 52% 29.61 in 10.0 mi SSW 11.5 mph - N/A   Clear
9:15 PM 64.4 °F 46.8 °F 53% 29.61 in 10.0 mi SSW 12.7 mph - N/A   Clear
9:35 PM 64.4 °F 47.1 °F 53% 29.61 in 10.0 mi SSW 12.7 mph 18.4 mph N/A   Clear
9:55 PM 65.8 °F 48.4 °F 53% 29.61 in 10.0 mi SSW 12.7 mph - N/A   Clear
10:15 PM 65.3 °F 48.2 °F 54% 29.61 in 10.0 mi SSW 13.8 mph - N/A   Clear
10:35 PM 65.8 °F 48.7 °F 54% 29.60 in 10.0 mi SSW 15.0 mph 21.9 mph N/A   Clear
10:55 PM 65.1 °F 48.2 °F 54% 29.59 in 10.0 mi SSW 15.0 mph - N/A   Clear
11:15 PM 64.0 °F 48.0 °F 56% 29.59 in 10.0 mi SSW 13.8 mph 23.0 mph N/A   Clear
11:35 PM 63.5 °F 48.2 °F 57% 29.59 in 10.0 mi SSW 13.8 mph 19.6 mph N/A   Clear
11:55 PM 62.2 °F 47.8 °F 59% 29.59 in 10.0 mi SSW 11.5 mph 17.3 mph N/A   Clear